GFSFLT1_2pvu_pres_141.txt.gz
Presure
183 180 184 176 179 177 181 169 177 180 168 181 178 177 174 180 169 182 168 188 174 186 177 182 181 186 205 202 206 204 233 219
148 178 190 179 180 178 181 184 187 186 181 175 182 174 159 170 188 177 191 167 172 180 184 195 184 183 191 199 204 224 208 232
177 171 187 179 173 178 178 181 181 180 181 177 181 188 180 182 187 191 170 177 195 171 186 151 186 184 193 196 198 212 216 235
161 185 182 178 177 173 176 174 175 186 183 190 188 180 182 183 190 181 196 185 172 174 191 184 192 185 199 200 206 221 266 298
179 178 172 169 169 177 176 173 180 182 179 184 178 187 191 192 173 189 172 171 187 191 174 185 182 184 194 188 251 273 321 340
167 169 175 182 183 184 185 182 184 188 184 178 169 192 181 189 187 184 184 182 190 183 193 192 193 206 212 259 271 317 317 340
183 183 183 187 183 185 187 185 187 193 190 185 181 189 181 196 192 189 191 191 173 204 180 180 197 214 250 268 311 305 303 334
180 190 196 195 188 188 190 187 182 183 184 187 193 190 190 194 191 195 197 184 196 195 189 217 241 245 265 273 310 297 304 336
168 176 144 180 184 182 183 188 186 183 182 191 191 192 197 185 188 193 184 189 191 92 220 248 243 255 265 305 306 316 361 344
187 184 189 173 169 172 197 197 193 194 171 202 202 176 200 207 206 200 189 194 204 200 242 248 260 261 285 308 320 367 349 331
190 189 191 178 178 173 172 188 180 181 185 180 190 192 192 194 193 196 203 221 242 243 262 263 269 271 309 339 362 349 335 322
185 191 191 183 171 177 198 180 189 180 198 191 191 191 191 194 201 190 243 240 237 284 275 274 272 303 341 373 357 337 328 320
185 177 177 176 183 157 183 195 200 202 183 196 192 184 231 240 197 235 230 188 258 271 271 281 310 380 364 347 340 341 349 344
193 187 179 185 180 189 197 209 248 204 184 209 207 179 240 221 230 241 241 238 270 275 286 312 381 355 326 315 310 308 313 311
202 184 182 190 200 220 202 200 211 237 232 207 210 198 198 217 231 235 237 240 281 286 248 332 367 321 311 310 308 306 310 311
234 221 205 222 217 199 215 245 230 212 232 204 228 230 237 230 233 235 241 281 288 293 330 380 324 311 307 299 288 300 311 305
210 224 227 226 218 219 223 237 220 221 228 226 239 224 229 244 237 256 286 284 285 304 388 329 306 300 297 295 294 288 300 311
215 214 232 130 194 207 217 216 220 217 222 224 219 224 237 253 288 252 161 242 293 390 338 304 300 295 288 288 291 281 316 305
213 219 224 223 210 210 212 220 224 225 240 237 260 265 266 277 271 279 286 284 293 349 313 297 289 285 281 280 275 280 297 283

GFSFLT1_2pvu_pres_144.txt.gz
Presure
184 171 152 185 186 181 184 155 186 185 176 180 173 177 174 169 171 182 188 184 159 174 187 182 185 197 166 176 179 161 178 175
181 177 201 198 174 177 179 143 181 177 174 178 171 180 170 178 182 187 178 185 183 190 187 187 187 186 194 183 176 187 194 191
190 183 189 187 183 184 183 182 165 173 178 184 185 183 180 180 187 187 180 187 194 193 184 103 199 174 187 193 194 191 159 210
187 189 187 187 182 176 173 176 183 181 184 179 183 187 187 189 192 192 202 194 150 179 193 190 189 179 189 179 191 178 172 193
189 183 172 183 179 182 180 166 179 183 184 192 188 188 189 188 188 183 183 188 191 193 185 195 187 166 193 197 174 196 198 192
169 170 179 181 181 183 176 181 179 191 188 177 171 178 181 181 182 189 187 194 190 187 187 197 176 188 198 193 177 204 173 206
183 182 180 177 181 181 182 180 179 179 175 179 183 182 173 183 178 180 183 177 186 200 186 188 188 194 190 196 205 190 218 282
177 177 181 184 176 182 169 173 180 171 186 178 155 171 185 175 172 183 180 185 188 194 201 192 171 196 208 208 213 204 248 291
183 164 170 173 173 180 182 181 178 172 180 184 185 183 171 175 186 168 201 194 201 205 194 200 239 209 245 211 239 251 284 282
180 174 174 177 173 177 182 182 181 181 193 197 194 191 177 172 184 187 197 212 199 182 203 210 198 207 206 240 248 274 287 297
185 180 179 175 181 185 187 180 183 190 187 182 190 191 188 183 199 190 204 198 215 209 217 217 211 233 216 239 251 290 295 384
185 184 185 183 180 179 187 180 185 188 185 173 124 206 202 176 182 202 196 192 210 210 190 208 208 240 234 244 291 294 393 354
191 187 188 193 185 182 192 187 182 168 193 218 185 179 194 192 216 197 182 194 225 218 235 234 231 266 297 297 295 404 353 325
207 225 204 184 190 210 222 209 198 210 228 215 214 226 236 232 184 242 237 208 189 230 223 230 277 283 302 286 331 360 328 322
115 217 218 227 211 194 219 228 232 223 226 234 228 227 226 218 225 228 227 211 218 227 240 251 272 309 291 308 374 323 312 302
217 227 215 224 225 235 217 200 219 192 225 231 214 225 236 222 227 227 226 228 227 240 240 264 283 295 287 351 330 309 303 294
214 121 215 221 216 235 228 210 212 223 212 216 239 225 225 223 222 225 229 223 240 241 275 275 308 283 297 350 316 298 290 288
216 221 221 222 216 208 213 214 234 216 226 233 225 215 225 224 231 229 232 240 250 285 282 296 300 293 363 318 302 291 284 283
224 224 218 215 216 224 212 216 222 222 223 216 227 227 217 222 230 226 226 296 263 298 285 289 281 302 339 297 291 285 278 276

GFSFLT1_2pvu_pres_147.txt.gz
Presure
182 190 176 191 207 196 196 197 186 185 191 183 184 176 166 179 178 184 183 179 171 182 183 183 193 185 197 181 185 191 187 184
178 168 180 201 200 191 178 183 186 190 170 183 175 180 168 172 183 180 159 187 187 183 191 189 185 181 188 195 189 194 183 195
183 187 177 144 177 182 185 169 174 190 184 174 179 174 181 184 180 188 182 176 178 178 176 175 183 194 193 202 185 198 183 191
190 182 172 169 190 175 180 178 190 192 177 175 175 180 180 182 191 177 188 172 175 184 181 187 177 178 181 182 192 199 201 191
165 176 162 172 175 189 181 172 166 174 185 180 182 187 191 176 184 186 179 185 189 190 188 181 173 180 183 198 175 197 200 202
169 173 183 181 164 167 174 177 191 182 172 174 173 176 182 179 182 186 192 180 146 192 182 192 181 199 169 183 190 201 204 189
165 168 152 178 181 181 179 171 176 189 182 175 179 179 178 177 181 189 184 189 182 192 192 194 188 180 179 181 207 203 195 214
182 159 166 180 180 180 184 181 184 171 174 184 183 181 174 178 176 181 183 183 186 184 195 176 178 194 198 201 207 194 229 222
192 187 178 180 176 173 174 176 182 182 175 173 174 172 177 179 183 181 173 182 188 183 185 186 176 189 195 205 178 233 225 211
141 168 189 175 178 180 183 183 172 172 178 173 174 179 176 184 182 188 185 189 187 184 203 207 217 221 214 193 242 232 209 220
191 194 185 172 177 177 182 182 176 181 185 178 177 186 183 184 189 188 179 185 213 199 213 239 240 238 236 239 209 218 236 223
192 199 201 193 182 187 188 201 163 194 195 187 187 189 178 176 184 180 200 199 226 231 180 231 212 222 236 224 229 219 234 258
227 218 211 205 201 197 222 220 211 225 204 209 211 220 235 236 223 235 232 236 226 181 228 224 211 229 226 232 234 237 249 298
232 233 221 233 226 217 222 214 217 229 223 223 214 230 226 199 209 237 218 206 238 227 202 223 233 229 237 229 242 247 251 310
212 221 212 217 227 223 230 221 219 205 209 221 223 177 233 206 216 192 213 213 221 232 236 226 219 231 236 258 243 248 288 162
229 224 220 213 220 216 218 212 223 214 238 232 227 236 216 194 225 230 221 224 220 228 229 231 246 239 252 264 265 310 315 304
244 227 219 220 216 219 211 213 216 232 226 238 212 217 181 222 213 223 235 221 227 238 231 224 242 252 243 267 322 316 306 352
274 250 238 242 237 226 229 229 227 221 220 224 221 224 215 217 222 221 224 228 233 228 233 240 244 293 294 269 309 295 307 328
324 298 277 260 248 245 242 228 222 221 221 217 217 213 216 216 226 233 233 230 232 233 226 245 259 306 285 301 290 301 357 307

GFSFLT1_2pvu_pres_150.txt.gz
Presure
193 173 172 194 190 184 177 184 189 176 178 200 191 195 190 186 175 178 168 173 178 174 166 179 183 180 184 170 182 177 171 179
169 180 188 176 181 177 185 179 170 182 171 190 182 168 171 157 189 176 171 177 181 180 181 181 172 180 173 174 195 185 183 172
178 170 180 185 188 180 169 172 180 172 173 171 171 186 191 191 183 177 182 178 179 178 173 177 180 180 179 180 180 184 189 192
187 173 171 163 163 178 180 161 151 177 165 172 180 189 188 164 163 189 184 171 183 177 176 181 179 179 181 176 189 183 184 182
160 168 165 186 157 166 178 185 176 182 189 167 174 180 176 181 172 173 172 178 181 186 179 176 177 180 184 183 191 186 185 191
169 152 186 175 180 167 181 178 175 185 179 180 179 185 164 172 169 176 185 189 173 175 175 177 182 182 185 181 190 194 191 192
166 137 161 169 162 154 153 175 161 165 174 177 175 172 181 180 176 178 173 173 181 181 181 181 182 185 188 187 188 182 193 194
187 168 167 161 179 179 176 160 135 162 182 160 177 183 173 177 180 181 182 181 175 183 184 178 184 185 187 187 190 185 200 225
167 145 183 187 165 185 184 181 187 141 182 189 175 180 185 184 179 177 172 171 168 186 185 179 184 187 187 186 190 190 204 194
212 192 192 193 203 201 188 174 203 196 186 186 191 194 184 183 197 189 187 196 183 194 193 187 195 202 203 210 217 205 229 197
200 200 208 194 182 203 178 167 203 198 180 185 195 181 187 188 203 187 204 208 198 209 208 207 203 219 227 210 217 238 216 229
193 195 198 198 181 194 196 201 185 210 213 206 216 204 205 215 209 199 203 202 223 205 227 215 224 198 224 222 216 237 222 217
200 206 211 212 201 212 203 199 214 212 212 214 216 218 217 215 225 205 215 223 215 219 217 205 222 177 207 207 223 224 233 225
229 210 201 220 204 217 216 216 213 210 218 202 203 214 202 213 208 219 212 201 226 237 209 245 173 224 228 240 196 228 222 237
239 232 222 213 232 225 214 224 220 219 219 215 210 218 208 205 210 203 199 225 210 189 230 204 225 216 204 217 213 228 226 256
225 233 235 244 235 228 236 223 140 217 225 228 222 220 214 212 212 210 231 194 219 192 221 230 223 217 234 215 227 229 254 239
281 272 269 295 279 241 238 233 228 242 227 226 221 225 218 217 215 236 194 224 232 227 223 223 232 220 221 225 224 252 246 273
392 395 384 351 303 286 270 266 241 230 243 230 172 226 230 228 234 237 227 187 221 224 237 225 227 227 225 213 235 242 255 281
379 381 366 367 336 356 298 320 290 265 243 229 226 225 229 222 221 219 222 229 230 229 235 228 245 213 240 245 258 266 270 286